Погода в Партизанском

Россия / Красноярский край     55°29′59″N   94°23′39″E
темп.,
°C
ветер,
м/с
пор.,
м/с
влажн.,
%
обл.,
%
осадки,
мм/ч
давл.,
гПа
погр.,
м
16 мая, вс
вс1601:00+11зюз101885100 3.9 1012923
04:00+11зсз7128999 4.9 1013772
07:00+10ссз3596100 6.1 1014358
10:00+8ссв2296100 2.6 1015230
13:00+8св2294100 3.3 1014256
16:00+7в2296100 8.1 1012178
19:00+7с1299100 20.3 1012157
22:00+7зсз1297100 2.0 101291
17 мая, пн
пн1701:00+6сз259370 2.0 1013206
04:00+5зсз239065 0.0 1013113
07:00+6зсз2479100 0.0 1014222
10:00+8сз3573100 0.0 1015545
13:00+11сз3452100 0.0 10131223
16:00+11сз4652100 0.0 10131376
19:00+10сз366196 0.0 1013459
22:00+8ссз1168100 0.0 101413
18 мая, вт
вт1801:00+7з1167100 0.0 101310
04:00+7зюз2271100 0.0 101224
07:00+7ююв2383100 0.3 101188
10:00+7юв2392100 0.4 1009144
13:00+7юв2396100 3.2 1006164
16:00+8вюв2296100 1.5 100398
19:00+8всв2399100 6.3 100091
22:00+6ссв3599100 6.1 1002254
19 мая, ср
ср1901:00+6ссв2598100 7.3 1002282
04:00+5с3598100 1.8 1003368
07:00+5св4497100 3.8 1004680
10:00+5в2495100 1.6 1005740
13:00+5ю1194100 1.9 1005648
16:00+6зюз2391100 0.1 1005458
19:00+7юз4683100 0.3 1004209
22:00+5сз41173100 0.1 1005318
20 мая, чт
чт2001:00+3сз51171100 0.1 1007356
04:00+1зсз51078100 0.0 1009382
07:00+1зсз586899 0.0 1011575
10:00+4зсз6746100 0.0 10112147
13:00+6з7837100 0.0 10112621
16:00+6з6739100 0.0 10112635
19:00+5з576066 0.4 10131127
22:00+1зюз48825 0.1 1015242